This is the latest recevied weather packets stored in our database for station/object YB2SAT-13. If no packets are shown the sender has not sent any weather packets the latest 1 day(s).
| Time | Temp. | Humidity | Pressure | Rain* | Wind** | Luminosity | Snow |
|---|---|---|---|---|---|---|---|
| 1778068858 | 30.56° C | 70% | 1008 hPa | 0 mm | - | - | - |
| 1778067952 | 30.56° C | 70% | 1008 hPa | 0 mm | - | - | - |
| 1778067056 | 30.56° C | 70% | 1008 hPa | 0 mm | - | - | - |
| 1778066152 | 30.56° C | 70% | 1007 hPa | 0 mm | - | - | - |
| 1778063455 | 32.78° C | 55% | 1007 hPa | 0 mm | - | - | - |
| 1778058952 | 33.89° C | 52% | 1006 hPa | 0 mm | - | - | - |
| 1778057152 | 33.89° C | 55% | 1006 hPa | 0 mm | - | - | - |
| 1778056256 | 34.44° C | 52% | 1006 hPa | 0 mm | - | - | - |
| 1778055352 | 33.89° C | 52% | 1006 hPa | 0 mm | - | - | - |
| 1778054469 | 34.44° C | 55% | 1006 hPa | 0 mm | - | - | - |
| 1778054456 | 34.44° C | 55% | 1006 hPa | 0 mm | - | - | - |
| 1778051752 | 33.89° C | 52% | 1007 hPa | 0 mm | - | - | - |
| 1778050861 | 34.44° C | 64% | 1006 hPa | 0 mm | - | - | - |
| 1778049054 | 34.44° C | 62% | 1007 hPa | 0 mm | - | - | - |
| 1778047259 | 33.33° C | 62% | 1007 hPa | 0 mm | - | - | - |
| 1778046352 | 32.78° C | 62% | 1007 hPa | 0 mm | - | - | - |
| 1778041852 | 33.89° C | 70% | 1008 hPa | 0 mm | - | - | - |
| 1778040053 | 32.78° C | 71% | 1009 hPa | 0 mm | - | - | - |
| 1778039152 | 32.22° C | 71% | 1009 hPa | 0 mm | - | - | - |
| 1778037352 | 31.11° C | 70% | 1010 hPa | 0 mm | - | - | - |
| 1778036452 | 30.56° C | 70% | 1010 hPa | 0 mm | - | - | - |
| 1778035552 | 33.33° C | 77% | 1010 hPa | 0 mm | - | - | - |
| 1778033752 | 31.67° C | 89% | 1011 hPa | 0 mm | - | - | - |
| 1778031951 | 30.56° C | 89% | 1011 hPa | 0 mm | - | - | - |
| 1778030151 | 29.44° C | 89% | 1011 hPa | 0 mm | - | - | - |
* Rain latest hour (hover to see other rain measurements)
** Current wind speed in m/s (hover to see current wind gust speed)